Find Starlink 3998

NORAD ID: 52610 Int'l Des: 2022-052 Owner: SPXS Country: US Constellation: starlink operational
LEOCIRCULAR

Live Position

Loading 3D Globe...

About Starlink 3998

Description loading...

Upcoming Passes

Passes for default location (London). Set your location on the main map for personalized predictions.

Altitude History

Loading altitude history...

Two-Line Element Set

1 52610U 22052N 26123.46716872 -.00000733 00000-0 -27970-4 0 9994
2 52610 53.2182 38.2136 0001422 94.1938 265.9216 15.08838902219055
Epoch: May 3, 2026 • Age: 15 hours

Current Status

Altitude 554.4 km
Velocity 7.58 km/s
Sub-Earth Point -41.74°S, 3.52°W
Launch Date May 14, 2022
Age 3.9 years
Type internet

Technical Details

Classification Payload
Mass 297.00 kg
Dry Mass 275.00 kg
Total Mass 297.00 kg
Length 0.20 m
Diameter 2.80 m
Span 9.00 m
Shape Box + pan
Manufacturer SPXS
Bus Type Starlink
Phase Status In Orbit
Owner/State SPXS/US

Most Searched